Airport Information

KLMT - Klamath Falls Airport

KLMT 251053Z AUTO 13010KT 10SM CLR 04/M03 A3002 RMK AO2 SLP156 T00441033


  • General Information

  • Coordinates: N 42°9'21"/ W 121°43'58"
  • Location: N/A
  • Surveyed Elevation: 4095 MSL

Operations

Flow Name Active Runways Conditions
South Flow Landing: 14
Departing: 14
Wind Direction: 050-229°
Wind Speed: >10

Green background denotes normal operations.


Common Frequencies

Callsign Frequency Position Name
LMT_GND 121.900 Kingsley Ground

More at the Document Center


Charts